Time,TemperatureF,DewpointF,PressureIn,WindDirection,WindDirectionDegrees,WindSpeedMPH,WindSpeedGustMPH,Humidity,HourlyPrecipIn,Conditions,Clouds,dailyrainin,SoftwareType,DateUTC
2013-02-22 00:11:00,40.9,38.0,30.29,NE,51,0.0,0.0,90,0.22,,,0.70,weatherlink.com 1.10,2013-02-22 05:11:00,
2013-02-22 00:26:00,40.8,38.0,30.28,South,191,0.0,0.0,90,0.24,,,0.76,weatherlink.com 1.10,2013-02-22 05:26:00,
2013-02-22 00:41:00,40.7,38.0,30.27,SW,214,0.0,0.0,89,0.26,,,0.81,weatherlink.com 1.10,2013-02-22 05:41:00,
2013-02-22 00:56:00,40.5,38.0,30.27,SW,236,0.0,0.0,89,0.23,,,0.86,weatherlink.com 1.10,2013-02-22 05:56:00,
2013-02-22 01:11:00,40.6,37.0,30.23,ESE,118,0.0,0.0,88,0.23,,,0.05,weatherlink.com 1.10,2013-02-22 06:11:00,
2013-02-22 01:26:00,40.8,38.0,30.24,SSE,153,0.0,0.0,88,0.19,,,0.07,weatherlink.com 1.10,2013-02-22 06:26:00,
2013-02-22 01:41:00,40.9,38.0,30.25,WSW,250,0.0,1.0,88,0.16,,,0.09,weatherlink.com 1.10,2013-02-22 06:41:00,
2013-02-22 01:56:00,40.9,38.0,30.23,WSW,243,0.0,3.0,88,0.16,,,0.14,weatherlink.com 1.10,2013-02-22 06:56:00,
2013-02-22 02:11:00,40.9,38.0,30.26,SSW,204,0.0,9.0,88,0.15,,,0.20,weatherlink.com 1.10,2013-02-22 07:11:00,
2013-02-22 02:26:00,40.9,38.0,30.20,East,94,0.0,0.0,89,0.22,,,0.29,weatherlink.com 1.10,2013-02-22 07:26:00,
2013-02-22 02:41:00,40.9,38.0,30.20,SSW,203,0.0,0.0,89,0.21,,,0.30,weatherlink.com 1.10,2013-02-22 07:41:00,
2013-02-22 02:56:00,40.8,38.0,30.21,East,84,0.0,0.0,89,0.18,,,0.32,weatherlink.com 1.10,2013-02-22 07:56:00,
2013-02-22 03:11:00,40.8,38.0,30.19,ESE,113,0.0,0.0,89,0.12,,,0.32,weatherlink.com 1.10,2013-02-22 08:11:00,
2013-02-22 03:26:00,40.8,38.0,30.19,NW,309,0.0,0.0,89,0.03,,,0.32,weatherlink.com 1.10,2013-02-22 08:26:00,
2013-02-22 03:41:00,40.8,38.0,30.20,West,259,1.0,8.0,89,0.01,,,0.32,weatherlink.com 1.10,2013-02-22 08:41:00,
2013-02-22 03:56:00,40.7,38.0,30.19,SE,134,0.0,5.0,90,0.00,,,0.32,weatherlink.com 1.10,2013-02-22 08:56:00,
2013-02-22 04:11:00,40.9,38.0,30.18,West,264,0.0,6.0,90,0.00,,,0.32,weatherlink.com 1.10,2013-02-22 09:11:00,
2013-02-22 04:26:00,41.1,39.0,30.20,WNW,285,0.0,0.0,91,0.00,,,0.32,weatherlink.com 1.10,2013-02-22 09:26:00,
2013-02-22 04:41:00,41.1,39.0,30.21,WSW,256,0.0,1.0,91,0.02,,,0.34,weatherlink.com 1.10,2013-02-22 09:41:00,
2013-02-22 04:56:00,40.9,39.0,30.22,East,101,0.0,3.0,91,0.02,,,0.34,weatherlink.com 1.10,2013-02-22 09:56:00,
2013-02-22 05:11:00,40.5,38.0,30.22,SW,229,0.0,5.0,91,0.03,,,0.35,weatherlink.com 1.10,2013-02-22 10:11:00,
2013-02-22 05:26:00,40.1,38.0,30.22,WNW,287,0.0,2.0,91,0.03,,,0.35,weatherlink.com 1.10,2013-02-22 10:26:00,
2013-02-22 05:41:00,39.9,37.0,30.22,SSW,210,0.0,1.0,90,0.01,,,0.35,weatherlink.com 1.10,2013-02-22 10:41:00,
2013-02-22 05:56:00,39.7,37.0,30.21,ESE,102,0.0,0.0,90,0.00,,,0.35,weatherlink.com 1.10,2013-02-22 10:56:00,
2013-02-22 06:11:00,39.6,37.0,30.22,NW,312,0.0,0.0,90,0.00,,,0.35,weatherlink.com 1.10,2013-02-22 11:11:00,
2013-02-22 06:26:00,39.7,37.0,30.22,ENE,67,0.0,0.0,90,0.00,,,0.35,weatherlink.com 1.10,2013-02-22 11:26:00,
2013-02-22 06:42:00,39.8,37.0,30.21,ENE,67,0.0,0.0,90,0.00,,,0.35,weatherlink.com 1.10,2013-02-22 11:42:00,
2013-02-22 06:56:00,39.9,37.0,30.21,ENE,67,0.0,0.0,90,0.00,,,0.35,weatherlink.com 1.10,2013-02-22 11:56:00,
2013-02-22 07:11:00,39.9,37.0,30.21,ENE,67,0.0,0.0,90,0.00,,,0.35,weatherlink.com 1.10,2013-02-22 12:11:00,
2013-02-22 07:26:00,40.1,37.0,30.21,East,79,0.0,0.0,89,0.00,,,0.35,weatherlink.com 1.10,2013-02-22 12:26:00,
2013-02-22 07:42:00,40.1,37.0,30.22,SSW,207,0.0,0.0,89,0.00,,,0.35,weatherlink.com 1.10,2013-02-22 12:42:00,
2013-02-22 07:57:00,39.8,37.0,30.23,West,266,0.0,0.0,90,0.00,,,0.35,weatherlink.com 1.10,2013-02-22 12:57:00,
2013-02-22 08:11:00,39.7,37.0,30.24,South,169,0.0,1.0,90,0.00,,,0.35,weatherlink.com 1.10,2013-02-22 13:11:00,
2013-02-22 08:26:00,39.3,37.0,30.24,SW,219,0.0,0.0,91,0.00,,,0.35,weatherlink.com 1.10,2013-02-22 13:26:00,
2013-02-22 08:41:00,39.2,37.0,30.25,SSW,211,0.0,0.0,91,0.00,,,0.35,weatherlink.com 1.10,2013-02-22 13:41:00,
2013-02-22 08:56:00,39.3,37.0,30.24,WSW,248,0.0,0.0,91,0.00,,,0.35,weatherlink.com 1.10,2013-02-22 13:56:00,
2013-02-22 09:11:00,39.5,37.0,30.24,SW,221,0.0,4.0,91,0.00,,,0.35,weatherlink.com 1.10,2013-02-22 14:11:00,
2013-02-22 09:26:00,39.8,37.0,30.23,SE,138,0.0,0.0,91,0.00,,,0.35,weatherlink.com 1.10,2013-02-22 14:26:00,
2013-02-22 09:41:00,40.6,38.0,30.23,SSW,200,0.0,1.0,91,0.00,,,0.35,weatherlink.com 1.10,2013-02-22 14:41:00,
2013-02-22 09:56:00,40.9,39.0,30.23,WSW,249,0.0,5.0,91,0.00,,,0.35,weatherlink.com 1.10,2013-02-22 14:56:00,
2013-02-22 10:11:00,41.5,39.0,30.22,WSW,239,0.0,0.0,91,0.00,,,0.35,weatherlink.com 1.10,2013-02-22 15:11:00,
2013-02-22 10:26:00,41.9,40.0,30.22,WSW,237,0.0,0.0,91,0.00,,,0.35,weatherlink.com 1.10,2013-02-22 15:26:00,
2013-02-22 10:42:00,42.4,40.0,30.22,SSW,207,0.0,0.0,91,0.00,,,0.35,weatherlink.com 1.10,2013-02-22 15:42:00,
2013-02-22 10:56:00,42.8,40.0,30.22,WSW,245,0.0,0.0,91,0.00,,,0.35,weatherlink.com 1.10,2013-02-22 15:56:00,
2013-02-22 11:12:00,43.1,41.0,30.23,West,264,0.0,0.0,91,0.00,,,0.35,weatherlink.com 1.10,2013-02-22 16:12:00,
2013-02-22 11:27:00,43.3,41.0,30.23,SSE,160,0.0,0.0,91,0.00,,,0.35,weatherlink.com 1.10,2013-02-22 16:27:00,
2013-02-22 11:42:00,43.3,41.0,30.23,NW,311,0.0,0.0,91,0.00,,,0.35,weatherlink.com 1.10,2013-02-22 16:42:00,
2013-02-22 11:57:00,43.3,41.0,30.23,SSE,148,0.0,0.0,90,0.00,,,0.35,weatherlink.com 1.10,2013-02-22 16:57:00,
2013-02-22 12:12:00,43.3,41.0,30.23,SSE,158,0.0,0.0,90,0.00,,,0.35,weatherlink.com 1.10,2013-02-22 17:12:00,
2013-02-22 12:27:00,43.2,41.0,30.23,West,275,0.0,0.0,90,0.00,,,0.35,weatherlink.com 1.10,2013-02-22 17:27:00,
2013-02-22 12:42:00,43.2,41.0,30.23,SW,226,0.0,1.0,90,0.00,,,0.35,weatherlink.com 1.10,2013-02-22 17:42:00,
2013-02-22 12:57:00,43.3,41.0,30.22,SW,214,0.0,0.0,90,0.00,,,0.35,weatherlink.com 1.10,2013-02-22 17:57:00,
2013-02-22 13:13:00,43.3,40.0,30.21,SSW,203,0.0,0.0,89,0.00,,,0.35,weatherlink.com 1.10,2013-02-22 18:13:00,
2013-02-22 13:27:00,43.4,40.0,30.21,SW,233,0.0,4.0,89,0.00,,,0.35,weatherlink.com 1.10,2013-02-22 18:27:00,
2013-02-22 13:42:00,43.5,41.0,30.20,SW,219,0.0,0.0,90,0.00,,,0.35,weatherlink.com 1.10,2013-02-22 18:42:00,
2013-02-22 13:57:00,43.7,41.0,30.19,SSW,207,0.0,1.0,90,0.00,,,0.35,weatherlink.com 1.10,2013-02-22 18:57:00,
2013-02-22 14:12:00,43.7,41.0,30.19,WSW,243,0.0,0.0,89,0.00,,,0.35,weatherlink.com 1.10,2013-02-22 19:12:00,
2013-02-22 14:27:00,44.1,41.0,30.18,WSW,245,0.0,0.0,89,0.00,,,0.35,weatherlink.com 1.10,2013-02-22 19:27:00,
2013-02-22 14:42:00,44.6,42.0,30.19,West,259,0.0,0.0,89,0.00,,,0.35,weatherlink.com 1.10,2013-02-22 19:42:00,
2013-02-22 14:57:00,45.0,42.0,30.18,SE,139,0.0,0.0,89,0.00,,,0.35,weatherlink.com 1.10,2013-02-22 19:57:00,
2013-02-22 15:12:00,45.5,42.0,30.18,WSW,256,0.0,0.0,88,0.00,,,0.35,weatherlink.com 1.10,2013-02-22 20:12:00,
2013-02-22 15:27:00,45.5,42.0,30.18,WSW,250,0.0,0.0,88,0.00,,,0.35,weatherlink.com 1.10,2013-02-22 20:27:00,
2013-02-22 15:42:00,45.7,42.0,30.18,West,262,0.0,0.0,88,0.00,,,0.35,weatherlink.com 1.10,2013-02-22 20:42:00,
2013-02-22 15:57:00,45.9,43.0,30.18,WSW,255,0.0,0.0,89,0.00,,,0.35,weatherlink.com 1.10,2013-02-22 20:57:00,
2013-02-22 16:12:00,45.9,43.0,30.17,West,259,0.0,0.0,88,0.00,,,0.35,weatherlink.com 1.10,2013-02-22 21:12:00,
2013-02-22 16:27:00,46.1,43.0,30.16,West,259,0.0,0.0,89,0.00,,,0.35,weatherlink.com 1.10,2013-02-22 21:27:00,
2013-02-22 16:42:00,45.7,42.0,30.16,WSW,251,0.0,0.0,88,0.00,,,0.35,weatherlink.com 1.10,2013-02-22 21:42:00,
2013-02-22 16:57:00,45.3,42.0,30.17,SW,236,0.0,0.0,89,0.00,,,0.35,weatherlink.com 1.10,2013-02-22 21:57:00,
2013-02-22 17:12:00,45.1,42.0,30.17,SW,228,0.0,0.0,89,0.00,,,0.35,weatherlink.com 1.10,2013-02-22 22:12:00,
2013-02-22 17:27:00,45.0,42.0,30.17,SW,228,0.0,0.0,89,0.00,,,0.35,weatherlink.com 1.10,2013-02-22 22:27:00,
2013-02-22 17:42:00,44.8,42.0,30.16,SW,228,0.0,0.0,89,0.00,,,0.35,weatherlink.com 1.10,2013-02-22 22:42:00,
2013-02-22 17:57:00,44.5,42.0,30.16,SW,228,0.0,0.0,90,0.00,,,0.35,weatherlink.com 1.10,2013-02-22 22:57:00,
2013-02-22 18:12:00,44.2,42.0,30.18,SW,228,0.0,0.0,90,0.00,,,0.35,weatherlink.com 1.10,2013-02-22 23:12:00,
2013-02-22 18:27:00,43.9,41.0,30.19,SW,228,0.0,0.0,90,0.00,,,0.35,weatherlink.com 1.10,2013-02-22 23:27:00,
2013-02-22 18:42:00,43.7,41.0,30.19,SW,228,0.0,0.0,90,0.00,,,0.35,weatherlink.com 1.10,2013-02-22 23:42:00,
2013-02-22 18:57:00,43.5,41.0,30.19,SW,228,0.0,0.0,91,0.00,,,0.35,weatherlink.com 1.10,2013-02-22 23:57:00,
2013-02-22 19:12:00,43.3,41.0,30.19,SW,229,0.0,0.0,91,0.00,,,0.35,weatherlink.com 1.10,2013-02-23 00:12:00,
2013-02-22 19:27:00,43.1,41.0,30.20,SW,229,0.0,0.0,91,0.00,,,0.35,weatherlink.com 1.10,2013-02-23 00:27:00,
2013-02-22 19:42:00,43.1,41.0,30.20,SW,229,0.0,0.0,91,0.00,,,0.35,weatherlink.com 1.10,2013-02-23 00:42:00,
2013-02-22 19:57:00,43.1,41.0,30.20,SW,229,0.0,0.0,91,0.00,,,0.35,weatherlink.com 1.10,2013-02-23 00:57:00,
2013-02-22 20:12:00,43.2,41.0,30.19,East,89,0.0,0.0,91,0.00,,,0.35,weatherlink.com 1.10,2013-02-23 01:12:00,
2013-02-22 20:27:00,43.2,41.0,30.20,ENE,66,0.0,0.0,91,0.00,,,0.35,weatherlink.com 1.10,2013-02-23 01:27:00,
2013-02-22 20:42:00,43.1,40.0,30.17,East,89,0.0,0.0,90,0.00,,,0.35,weatherlink.com 1.10,2013-02-23 01:42:00,
2013-02-22 20:57:00,42.9,40.0,30.15,ENE,67,0.0,0.0,90,0.00,,,0.35,weatherlink.com 1.10,2013-02-23 01:57:00,
2013-02-22 21:12:00,42.9,40.0,30.16,NE,49,0.0,0.0,90,0.00,,,0.35,weatherlink.com 1.10,2013-02-23 02:12:00,
2013-02-22 21:27:00,43.0,40.0,30.17,NW,317,0.0,0.0,90,0.00,,,0.35,weatherlink.com 1.10,2013-02-23 02:27:00,
2013-02-22 21:42:00,42.9,40.0,30.17,ESE,113,0.0,0.0,90,0.00,,,0.35,weatherlink.com 1.10,2013-02-23 02:42:00,
2013-02-22 21:57:00,42.9,40.0,30.16,ESE,119,0.0,0.0,90,0.00,,,0.35,weatherlink.com 1.10,2013-02-23 02:57:00,
2013-02-22 22:12:00,43.0,40.0,30.17,East,87,0.0,4.0,89,0.00,,,0.35,weatherlink.com 1.10,2013-02-23 03:12:00,
2013-02-22 22:27:00,43.2,40.0,30.22,East,89,0.0,2.0,89,0.00,,,0.35,weatherlink.com 1.10,2013-02-23 03:27:00,
2013-02-22 22:42:00,43.7,41.0,30.23,ENE,77,0.0,0.0,89,0.00,,,0.35,weatherlink.com 1.10,2013-02-23 03:42:00,
2013-02-22 22:57:00,43.4,41.0,30.22,East,82,0.0,1.0,90,0.00,,,0.35,weatherlink.com 1.10,2013-02-23 03:57:00,
2013-02-22 23:13:00,43.6,40.0,30.20,West,263,0.0,0.0,88,0.01,,,0.36,weatherlink.com 1.10,2013-02-23 04:13:00,
2013-02-22 23:27:00,43.9,41.0,30.18,ENE,77,0.0,1.0,89,0.03,,,0.38,weatherlink.com 1.10,2013-02-23 04:27:00,
2013-02-22 23:43:00,43.9,41.0,30.17,East,80,0.0,2.0,88,0.03,,,0.38,weatherlink.com 1.10,2013-02-23 04:43:00,
2013-02-22 23:57:00,43.9,41.0,30.17,East,79,0.0,0.0,88,0.02,,,0.38,weatherlink.com 1.10,2013-02-23 04:57:00,